星链-2375 (STARLINK-2375 )

导读 | 星芒AI

STARLINK-2375 是SpaceX星链计划中的一颗低轨通信卫星,属于该系列的第2375号卫星。它被设计用于提供全球范围内的高速互联网服务,特别是在偏远和网络覆盖不足的地区。该卫星采用先进的推进和通信技术,具备自动避撞功能,以确保在拥挤的近地轨道环境中安全运行。作为星链星座的一部分,STARLINK-2375 有助于提升全球互联网接入的稳定性和覆盖范围,推动数字连接的普及。

基本信息
目录编号:
47914
目录名称:
STARLINK-2375
国际标识:
2021-021BG
轨道中心:
EARTH
卫星名称:
星链-2375
卫星全名:
星链-2375 (STARLINK-2375 )
卫星状态:
已陨落 最后检测时间 2025-01-21
发射日期:
2021-03-14 UTC
国别 :
美国 (US)
星等 :
--
轨道信息
数据来源 国际轨道数据
星历时间: 2025-01-22T10:52:19+0800
轨道信息已过期281天
半长轴: 6517.178km
偏心率: 0.0002979
轨道倾角: 53.021°
近地点辐角 237.619°
升交点赤经 304.906°
平近点角 226.889°
近地点: 137.101km
远地点: 140.985km
周期: 87.267分钟
每日圈数: 16.501119
详细信息
固有亮度:
5
最大亮度:
2.5
卫星平台:
Starlink V1.0
覆盖范围:
全球
运营商:
太空探索技术公司
运营商所在国:
美国
制造商(研发单位):
太空探索技术公司
制造商所在国:
美国
使用方式:
暂无
卫星简介
星链(Starlink)计划是由太空探索技术公司(SpaceX)提出的一个巨型低轨卫星互联网星座项目,计划在2019年至2024年间在太空搭建由约1.2万颗卫星组成的“星链”网络,其中1584颗将部署在地球上空550千米处的近地轨道,并从2020年开始工作。该卫星仍在工作。